Regional Weather Roundup
Issued by NWS

Home | Current Version | Previous Version | Graphics & Text | Print | Product List | Glossary On
Versions: 1 2 3 4 5 6 7 8 9 10 11 12 13 14 15 16 17 18 19 20 21 22 23 24 25 26 27 28 29 30 31 32 33 34 35 36 37 38 39 40 41 42 43 44 45 46 47 48 49 50
000
ASUS43 KMKX 250600
RWRWI

WISCONSIN REGIONAL WEATHER ROUNDUP
NATIONAL WEATHER SERVICE MILWAUKEE/SULLIVAN WI
100 AM CDT SAT APR 25 2015

NOTE: "FAIR" INDICATES FEW OR NO CLOUDS BELOW 12,000 FEET WITH NO
SIGNIFICANT WEATHER AND/OR OBSTRUCTIONS TO VISIBILITY.

WIZ001-002-006>008-014>016-023>028-250700-
NORTHWEST WISCONSIN

CITY           SKY/WX    TMP DP  RH WIND       PRES   REMARKS
SUPERIOR ARPT  CLOUDY    35  32  87 NE10G18   29.94F WCI  27
ASHLAND        CLOUDY    37  34  89 NE9       29.95S WCI  30
6HR MIN TEMP:  36; 6HR MAX TEMP:  39;

HAYWARD        CLOUDY    42  31  64 NE5       29.89S
6HR MIN TEMP:  40; 6HR MAX TEMP:  42;

SIREN          CLOUDY    44  30  57 E5        29.87S
CUMBERLAND     CLOUDY    43  32  65 SE8       29.86S
RICE LAKE      CLOUDY    45  31  58 E9        29.89R
CHETEK         CLOUDY    45  32  61 E13G21    29.88S
LADYSMITH      CLOUDY    45  32  60 SE10      29.91S
EAU CLAIRE     NOT AVBL
MENOMONIE      CLOUDY    43  37  78 E8        29.87F
NEW RICHMOND   CLOUDY    43  35  71 E14G22    29.83F
OSCEOLA        CLOUDY    46  35  67 E17G23    29.85F
$$

WIZ003>005-009-010-017-018-250700-
NORTH CENTRAL WISCONSIN

CITY           SKY/WX    TMP DP  RH WIND       PRES   REMARKS
MANITOWISH WTR CLOUDY    40  30  68 SE7       29.93F WCI  35
ARBOR VITAE    CLOUDY    42  32  69 SE8       29.93F
WOODRUFF       CLOUDY    42  32  69 SE8       29.93F
RHINELANDER    CLOUDY    39  27  62 E8        29.95F WCI  33
6HR MIN TEMP:  39; 6HR MAX TEMP:  45;

EAGLE RIVER    CLOUDY    39  25  57 SE5       29.95F
LAND O LAKES   CLOUDY    39  30  69 SE5       29.96S
PHILLIPS       CLOUDY    40  31  70 SE7       29.91F
TOMAHAWK       CLOUDY    39  27  63 E6        29.94S WCI  34
MEDFORD        CLOUDY    39  32  77 E6        29.91F WCI  34
MERRILL        CLOUDY    40  24  52 SE7       29.94F
$$

WIZ029-030-035-036-043>047-250700-
CENTRAL WISCONSIN

CITY           SKY/WX    TMP DP  RH WIND       PRES   REMARKS
WAUSAU         CLOUDY    40  26  57 SE9       29.93F WCI  34
6HR MIN TEMP:  40; 6HR MAX TEMP:  50; 6HR PCP: TRACE;

MOSINEE        CLOUDY    37  30  75 E9        29.95S WCI  31
MARSHFIELD     LGT RAIN  38  34  85 E10       29.91F WCI  31
6HR MIN TEMP:  38; 6HR MAX TEMP:  50; 6HR PCP: TRACE;

STEVENS POINT  RAIN      36  32  88 E8        29.96S WCI  29
WAUPACA        LGT RAIN  39  33  80 E7        29.98F WCI  34
WAUTOMA        NOT AVBL
WISC RAPIDS    CLOUDY    38  33  82 E10       29.95S WCI  31
6HR MIN TEMP:  38; 6HR MAX TEMP:  52; 6HR PCP: TRACE;

CAMP DOUGLAS   MIX PCPN  39  39 100 E14       29.90F WCI  31
$$

WIZ011>013-019>022-031-037>040-048>050-250700-
NORTHEAST WISCONSIN

CITY           SKY/WX    TMP DP  RH WIND       PRES   REMARKS
ANTIGO         CLOUDY    37  22  54 SE8       29.96S WCI  31
SHAWANO        CLOUDY    41  25  54 E6        30.00S
OCONTO         CLOUDY    37  26  64 CALM      30.01S
STURGEON BAY   CLOUDY    39  18  41 S9        30.03S WCI  33
6HR MIN TEMP:  37; 6HR MAX TEMP:  39;

GREEN BAY      CLOUDY    40  24  53 E3        30.00F
6HR MIN TEMP:  40; 6HR MAX TEMP:  46;

MANITOWOC      NOT AVBL
APPLETON       CLOUDY    37  32  81 E7        29.98F WCI  32
CLINTONVILLE   CLOUDY    39  23  52 SE5       29.98F
OSHKOSH        CLOUDY    39  34  82 E7        29.95F WCI  34
6HR MIN TEMP:  38; 6HR MAX TEMP:  46; 6HR PCP:  0.03;

$$

WIZ032>034-041-042-053>061-250700-
SOUTHWEST WISCONSIN

CITY           SKY/WX    TMP DP  RH WIND       PRES   REMARKS
LA CROSSE      CLOUDY    44  37  76 VRB6      29.84F
6HR MIN TEMP:  44; 6HR MAX TEMP:  46; 6HR PCP:  0.03;

SPARTA         CLOUDY    40  36  84 E20G25    29.88F WCI  31
VIROQUA        CLOUDY    39  37  91 E22       29.83F WCI  29
BOSCOBEL       CLOUDY    42  36  79 NE9       29.85F
6HR MIN TEMP:  42; 6HR MAX TEMP:  45;

PRAIRIE DU CHI CLOUDY    43  35  74 E17       29.82F
PLATTEVILLE    CLOUDY    41  37  84 E22       29.82F
$$

WIZ056-057-062-063-064-067-068-250700-
SOUTH CENTRAL WISCONSIN

CITY           SKY/WX    TMP DP  RH WIND       PRES   REMARKS
REEDSBURG      CLOUDY    38  34  83 E8        29.90F WCI  33
BARABOO/DELLS  CLOUDY    38  34  85 E10G17    29.91F WCI  31
LONE ROCK      NOT AVBL
MINERAL POINT  CLOUDY    41  36  81 E15G21    29.84F
MADISON        CLOUDY    40  34  79 E14G26    29.91F WCI  32
6HR MIN TEMP:  39; 6HR MAX TEMP:  43; 6HR PCP:  0.03;

MIDDLETON      CLOUDY    41  35  79 E12       29.90F
WATERTOWN      CLOUDY    38  35  87 E9        29.93F WCI  32
MONROE         CLOUDY    39  34  81 E15G23    29.86F WCI  31
JANESVILLE     CLOUDY    41  34  75 E15       29.90S
$$

WIZ051-052-058>065-066-070>072-250700-
SOUTHEAST WISCONSIN

CITY           SKY/WX    TMP DP  RH WIND       PRES   REMARKS
MILWAUKEE      CLOUDY    38  32  79 NE8       29.96F WCI  32
6HR MIN TEMP:  38; 6HR MAX TEMP:  40; 6HR PCP:  0.02;

WAUKESHA       CLOUDY    36  32  87 NE9       29.96F WCI  29
MILWAUKEE/TIMM CLOUDY    37  32  81 NE7       29.97F WCI  32
RACINE         CLOUDY    40  33  76 E14       29.96F WCI  32
6HR MIN TEMP:  39; 6HR MAX TEMP:  41; 6HR PCP:  0.02;

BURLINGTON     CLOUDY    38  32  79 E10G16    29.93F WCI  31
KENOSHA        CLOUDY    40  35  83 E16       29.94S WCI  31
6HR MIN TEMP:  39; 6HR MAX TEMP:  41; 6HR PCP:  0.08;

FOND DU LAC    CLOUDY    39  33  79 E8        29.96F WCI  33
6HR MIN TEMP:  38; 6HR MAX TEMP:  44; 6HR PCP:  0.01;

SHEBOYGAN      CLOUDY    38  34  85 E5        29.98S WCI  34
6HR MIN TEMP:  36; 6HR MAX TEMP:  39; 6HR PCP:  0.01;

WEST BEND      CLOUDY    36  32  87 E7        29.97F WCI  30
JUNEAU         CLOUDY    38  33  84 E13       29.95F WCI  30
$$

LSZ147-162-250700-
LAKE SUPERIOR

STATION/POSITION TIME  TEMP    WIND        PRES    WAVE
                       AIR SEA DIR/SP/G            HT/PER
                 (UTC) (F)     (DEG/KT/KT) (MB)    (FT/S)
W MID LAKE BUOY  0450   35 34   70/ 14/ 16 1017.5F   3/ 5
DEVILS ISLAND    0500   36      70/ 19/ 21 1015.5F
PORT WING        0540   38      30/ 12/ 13 1014.2S
SAXON HARBOR     0500   38        CALM     1013.9S
$$

LMZ867-665-643>646-250700-
LAKE MICHIGAN

STATION/POSITION TIME  TEMP    WIND        PRES    WAVE
                       AIR SEA DIR/SP/G            HT/PER
                 (UTC) (F)     (DEG/KT/KT) (MB)    (FT/S)
CHAMBERS ISLAND  0500   39      60/  5/  7 1016.6S
NORTHPORT PIER   0500   38      80/  5/  7 1016.6S
SISTER BAY       0517   38     130/  9/ 14   N/A
KEWAUNEE LAKESHO 0500   40     140/  2/  6 1015.7R
SHEBOYGAN LAKESH 0500   39      50/ 10/ 11 1016.3F
PORT WASHINGTON  0540   40      50/  8/ 10 1015.6R
MILWAUKEE LAKESH 0500   38      40/ 10/ 12   N/A
KENOSHA   LAKESH 0500   41      70/ 17/ 19 1013.9F
$$

TC  - TEMPERATURE IN CELSIUS
VSB - VISIBILITY IN STATUTE MILES
WCI - WIND CHILL INDEX
HX  - HEAT INDEX




USA.gov is the U.S. government's official web portal to all federal, state and local government web resources and services.